Radiation Dose at Monitoring Post of Fukushima Daini Nuclear Power Station
Date,Time,MP-1(microSv/h),MP-2(microSv/h),MP-3(microSv/h),MP-4(microSv/h),MP-5(microSv/h),MP-6(microSv/h),MP-7(microSv/h),Wind Direction,Wind Velocity(m/s),Rain
2020/07/16,00:00,0.166,0.156,0.240,0.230,0.243,0.133,0.087,northwest,6.0,Yes
2020/07/16,00:10,0.166,0.155,0.242,0.230,0.244,0.134,0.088,northwest,6.2,Yes
2020/07/16,00:20,0.165,0.155,0.239,0.230,0.243,0.134,0.088,north-northwest,5.7,Yes
2020/07/16,00:30,0.166,0.155,0.242,0.230,0.243,0.134,0.088,north-northwest,5.9,Yes
2020/07/16,00:40,0.165,0.154,0.239,0.230,0.243,0.134,0.088,north-northwest,5.8,Yes
2020/07/16,00:50,0.165,0.156,0.243,0.230,0.242,0.134,0.089,north-northwest,6.1,Yes
2020/07/16,01:00,0.166,0.156,0.239,0.231,0.244,0.135,0.089,north-northwest,6.3,Yes
2020/07/16,01:10,0.168,0.157,0.241,0.231,0.242,0.134,0.089,northwest,6.0,Yes
2020/07/16,01:20,0.166,0.157,0.240,0.232,0.244,0.135,0.089,north-northwest,6.5,Yes
2020/07/16,01:30,0.166,0.156,0.243,0.232,0.242,0.135,0.088,north-northwest,6.2,Yes
2020/07/16,01:40,0.166,0.157,0.242,0.232,0.243,0.134,0.088,north-northwest,6.5,Yes
2020/07/16,01:50,0.167,0.156,0.241,0.232,0.244,0.133,0.087,north-northwest,5.7,Yes
2020/07/16,02:00,0.166,0.157,0.242,0.233,0.245,0.133,0.087,north-northwest,5.4,Yes
2020/07/16,02:10,0.166,0.154,0.240,0.231,0.242,0.132,0.086,north-northwest,5.6,Yes
2020/07/16,02:20,0.167,0.156,0.243,0.232,0.244,0.132,0.087,north-northwest,5.9,Yes
2020/07/16,02:30,0.166,0.156,0.242,0.233,0.242,0.134,0.086,north-northwest,6.7,Yes
2020/07/16,02:40,0.167,0.158,0.242,0.232,0.245,0.134,0.087,north-northwest,5.6,Yes
2020/07/16,02:50,0.167,0.157,0.241,0.233,0.245,0.134,0.089,north-northwest,5.2,Yes
2020/07/16,03:00,0.168,0.157,0.243,0.233,0.247,0.136,0.088,north-northwest,4.8,Yes
2020/07/16,03:10,0.167,0.158,0.241,0.233,0.244,0.135,0.089,north-northwest,5.5,Yes
2020/07/16,03:20,0.167,0.157,0.243,0.232,0.246,0.136,0.089,north-northwest,5.0,Yes
2020/07/16,03:30,0.166,0.158,0.242,0.233,0.244,0.135,0.089,north-northwest,5.1,Yes
2020/07/16,03:40,0.166,0.156,0.241,0.231,0.245,0.134,0.087,north-northwest,4.9,Yes
2020/07/16,03:50,0.165,0.155,0.239,0.231,0.244,0.133,0.087,north-northwest,4.9,No
2020/07/16,04:00,0.164,0.154,0.239,0.229,0.242,0.132,0.085,north-northwest,4.7,Yes
2020/07/16,04:10,0.163,0.153,0.237,0.231,0.239,0.131,0.084,north-northwest,4.3,Yes
2020/07/16,04:20,0.163,0.151,0.238,0.228,0.240,0.129,0.084,north-northwest,5.2,Yes
2020/07/16,04:30,0.161,0.150,0.237,0.229,0.237,0.129,0.083,north-northwest,4.9,Yes
2020/07/16,04:40,0.162,0.150,0.236,0.227,0.239,0.128,0.081,north-northwest,4.4,Yes
2020/07/16,04:50,0.160,0.149,0.238,0.227,0.237,0.127,0.082,north-northwest,4.5,Yes
2020/07/16,05:00,0.160,0.150,0.235,0.226,0.239,0.129,0.082,north-northwest,4.0,Yes
2020/07/16,05:10,0.161,0.149,0.236,0.228,0.237,0.128,0.082,northwest,4.8,Yes
2020/07/16,05:20,0.161,0.149,0.235,0.226,0.239,0.127,0.081,northwest,5.3,No
2020/07/16,05:30,0.161,0.148,0.236,0.227,0.237,0.127,0.081,north-northwest,4.9,No
2020/07/16,05:40,0.160,0.149,0.235,0.226,0.238,0.126,0.080,north-northwest,4.2,Yes
2020/07/16,05:50,0.160,0.149,0.235,0.227,0.236,0.126,0.080,north-northwest,4.6,Yes
2020/07/16,06:00,0.162,0.149,0.237,0.227,0.238,0.127,0.081,north-northwest,4.5,Yes
2020/07/16,06:10,0.162,0.148,0.235,0.227,0.236,0.128,0.081,northwest,4.4,Yes
2020/07/16,06:20,0.162,0.150,0.235,0.227,0.240,0.127,0.081,northwest,3.9,Yes
2020/07/16,06:30,0.162,0.149,0.235,0.227,0.236,0.127,0.080,north-northwest,4.1,No
2020/07/16,06:40,0.161,0.149,0.237,0.227,0.237,0.127,0.080,north-northwest,4.7,Yes
2020/07/16,06:50,0.162,0.149,0.234,0.226,0.235,0.126,0.081,north-northwest,4.6,Yes
2020/07/16,07:00,0.161,0.148,0.236,0.226,0.238,0.126,0.081,north-northwest,4.3,Yes
2020/07/16,07:10,0.160,0.149,0.236,0.225,0.235,0.126,0.079,north-northwest,4.1,Yes
2020/07/16,07:20,0.161,0.147,0.236,0.225,0.237,0.125,0.080,north-northwest,4.1,No
2020/07/16,07:30,0.160,0.149,0.235,0.226,0.236,0.126,0.079,north-northwest,3.8,Yes
2020/07/16,07:40,0.160,0.147,0.236,0.225,0.236,0.126,0.079,north-northwest,3.5,No
2020/07/16,07:50,0.159,0.149,0.234,0.226,0.235,0.126,0.079,north-northwest,3.5,No
2020/07/16,08:00,0.160,0.148,0.237,0.224,0.236,0.125,0.080,north-northwest,3.5,No
2020/07/16,08:10,0.160,0.148,0.234,0.226,0.236,0.125,0.078,north,3.1,No
2020/07/16,08:20,0.161,0.146,0.235,0.225,0.234,0.125,0.078,north,3.2,Yes
2020/07/16,08:30,0.159,0.147,0.234,0.227,0.237,0.124,0.079,north,3.7,No
2020/07/16,08:40,0.161,0.146,0.235,0.224,0.233,0.125,0.079,north,3.5,No
2020/07/16,08:50,0.159,0.147,0.235,0.227,0.237,0.125,0.078,north,3.1,No
2020/07/16,09:00,0.161,0.146,0.235,0.225,0.235,0.124,0.078,north,3.4,No
2020/07/16,09:10,0.159,0.147,0.235,0.225,0.235,0.125,0.077,north-northeast,2.9,No
2020/07/16,09:20,0.160,0.146,0.232,0.226,0.236,0.124,0.077,north-northeast,2.6,No
2020/07/16,09:30,0.160,0.147,0.237,0.225,0.234,0.126,0.078,northeast,2.4,No
2020/07/16,09:40,0.161,0.146,0.234,0.226,0.235,0.125,0.078,north-northeast,2.7,No
2020/07/16,09:50,0.160,0.146,0.234,0.224,0.236,0.125,0.078,northeast,2.6,No
2020/07/16,10:00,0.159,0.147,0.235,0.225,0.233,0.125,0.078,northeast,2.8,No
2020/07/16,10:10,0.161,0.146,0.233,0.226,0.237,0.125,0.078,northeast,3.7,No
2020/07/16,10:20,0.160,0.147,0.234,0.225,0.235,0.123,0.078,northeast,3.1,No
2020/07/16,10:30,0.160,0.147,0.236,0.224,0.233,0.124,0.078,northeast,2.6,No
2020/07/16,10:40,0.160,0.147,0.235,0.227,0.233,0.124,0.077,north-northeast,4.0,No
2020/07/16,10:50,0.160,0.147,0.234,0.226,0.237,0.125,0.077,north-northeast,5.1,Yes
2020/07/16,11:00,0.161,0.148,0.237,0.226,0.235,0.124,0.078,north-northeast,3.5,No
2020/07/16,11:10,0.161,0.146,0.233,0.227,0.234,0.125,0.078,north-northeast,4.6,No
2020/07/16,11:20,0.161,0.148,0.233,0.227,0.234,0.124,0.077,north-northeast,4.2,No
2020/07/16,11:30,0.162,0.148,0.236,0.226,0.238,0.126,0.078,north-northeast,5.0,No
2020/07/16,11:40,0.160,0.146,0.236,0.229,0.236,0.126,0.078,northeast,4.1,No
2020/07/16,11:50,0.161,0.149,0.235,0.228,0.234,0.125,0.077,northeast,4.9,No
2020/07/16,12:00,0.161,0.147,0.238,0.227,0.237,0.124,0.078,north-northeast,4.4,No
2020/07/16,12:10,0.161,0.146,0.236,0.227,0.237,0.126,0.078,north-northeast,4.4,No
2020/07/16,12:20,0.162,0.147,0.234,0.228,0.234,0.124,0.078,north-northeast,5.4,No
2020/07/16,12:30,0.160,0.148,0.238,0.226,0.235,0.126,0.077,northeast,4.1,No
2020/07/16,12:40,0.161,0.147,0.237,0.229,0.237,0.126,0.078,northeast,4.1,No
2020/07/16,12:50,0.163,0.148,0.234,0.228,0.237,0.126,0.078,northeast,4.1,No
2020/07/16,13:00,0.161,0.148,0.238,0.227,0.233,0.125,0.078,northeast,3.7,No
2020/07/16,13:10,0.163,0.147,0.237,0.227,0.237,0.126,0.078,northeast,3.5,No
2020/07/16,13:20,0.162,0.149,0.237,0.228,0.237,0.127,0.079,northeast,3.8,No
2020/07/16,13:30,0.161,0.147,0.237,0.228,0.236,0.126,0.078,northeast,3.7,No
2020/07/16,13:40,0.163,0.149,0.237,0.230,0.238,0.125,0.078,northeast,3.7,No
2020/07/16,13:50,0.162,0.148,0.238,0.228,0.238,0.127,0.078,northeast,3.9,No
2020/07/16,14:00,0.163,0.147,0.238,0.227,0.237,0.127,0.078,northeast,3.8,No
2020/07/16,14:10,0.162,0.149,0.237,0.229,0.236,0.126,0.078,north-northeast,4.3,No
2020/07/16,14:20,0.161,0.147,0.238,0.228,0.238,0.126,0.079,northeast,3.7,No
2020/07/16,14:30,0.163,0.148,0.238,0.228,0.236,0.127,0.078,northeast,3.2,No
2020/07/16,14:40,0.162,0.149,0.238,0.230,0.237,0.125,0.078,northeast,3.0,No
2020/07/16,14:50,0.163,0.148,0.238,0.227,0.239,0.127,0.079,north-northeast,3.8,No
2020/07/16,15:00,0.161,0.149,0.237,0.231,0.237,0.125,0.078,north-northeast,3.9,No
2020/07/16,15:10,0.161,0.147,0.239,0.230,0.236,0.126,0.079,north-northeast,3.9,No
2020/07/16,15:20,0.163,0.149,0.238,0.228,0.239,0.127,0.079,north-northeast,3.8,No
2020/07/16,15:30,0.161,0.148,0.239,0.230,0.236,0.126,0.078,north-northeast,3.7,No
2020/07/16,15:40,0.163,0.148,0.237,0.228,0.236,0.126,0.079,north-northeast,3.4,No
2020/07/16,15:50,0.160,0.148,0.237,0.230,0.238,0.127,0.078,north-northeast,3.2,No
2020/07/16,16:00,0.164,0.149,0.239,0.230,0.235,0.126,0.079,north,2.4,No
2020/07/16,16:10,0.162,0.150,0.238,0.228,0.240,0.127,0.078,north,2.8,No
2020/07/16,16:20,0.162,0.148,0.239,0.231,0.238,0.128,0.078,north-northeast,3.1,No
2020/07/16,16:30,0.164,0.149,0.239,0.229,0.237,0.126,0.079,north,2.5,No
2020/07/16,16:40,0.162,0.149,0.239,0.230,0.240,0.126,0.078,north,2.8,No
2020/07/16,16:50,0.163,0.150,0.240,0.229,0.235,0.126,0.078,north,2.5,No
2020/07/16,17:00,0.161,0.149,0.237,0.229,0.238,0.126,0.079,north,3.0,No
2020/07/16,17:10,0.163,0.149,0.239,0.231,0.238,0.127,0.078,north,2.6,No
2020/07/16,17:20,0.163,0.148,0.238,0.229,0.236,0.126,0.078,north,2.5,No
2020/07/16,17:30,0.163,0.149,0.239,0.230,0.239,0.126,0.078,north,2.8,No
2020/07/16,17:40,0.163,0.149,0.239,0.230,0.237,0.127,0.078,north,3.2,No
2020/07/16,17:50,0.162,0.148,0.238,0.229,0.238,0.125,0.079,north,3.3,No
2020/07/16,18:00,0.163,0.149,0.240,0.231,0.238,0.127,0.078,north,3.5,No
2020/07/16,18:10,0.162,0.148,0.238,0.229,0.236,0.127,0.079,north,2.9,No
2020/07/16,18:20,0.164,0.149,0.239,0.230,0.239,0.127,0.078,north,3.3,No
2020/07/16,18:30,0.162,0.148,0.237,0.230,0.238,0.128,0.078,north,2.6,No
2020/07/16,18:40,0.164,0.149,0.239,0.230,0.237,0.127,0.079,north,2.8,No
2020/07/16,18:50,0.162,0.148,0.238,0.230,0.240,0.127,0.078,north,2.9,No
2020/07/16,19:00,0.164,0.149,0.238,0.230,0.236,0.127,0.078,north,3.0,No
2020/07/16,19:10,0.163,0.149,0.239,0.231,0.240,0.126,0.078,north,3.2,No
2020/07/16,19:20,0.162,0.148,0.239,0.228,0.238,0.128,0.079,north,3.3,No
2020/07/16,19:30,0.163,0.149,0.240,0.231,0.237,0.127,0.078,north,2.9,No
2020/07/16,19:40,0.163,0.149,0.239,0.229,0.238,0.127,0.079,north-northwest,2.3,No
2020/07/16,19:50,0.163,0.148,0.239,0.231,0.237,0.127,0.078,north-northwest,1.7,No
2020/07/16,20:00,0.162,0.149,0.238,0.229,0.239,0.127,0.078,north,2.1,No
2020/07/16,20:10,0.165,0.149,0.239,0.232,0.236,0.128,0.080,north,2.6,No
2020/07/16,20:20,0.162,0.149,0.238,0.230,0.240,0.127,0.078,north,2.8,No
2020/07/16,20:30,0.163,0.148,0.239,0.230,0.237,0.128,0.079,north,3.1,No
2020/07/16,20:40,0.163,0.148,0.239,0.231,0.238,0.127,0.079,north,3.4,No
2020/07/16,20:50,0.163,0.149,0.241,0.228,0.238,0.128,0.078,north,2.8,No
2020/07/16,21:00,0.164,0.148,0.239,0.232,0.238,0.128,0.078,north,2.3,No
2020/07/16,21:10,0.163,0.148,0.239,0.229,0.238,0.127,0.079,north,2.0,No
2020/07/16,21:20,0.164,0.148,0.238,0.232,0.236,0.128,0.079,north-northwest,2.2,No
2020/07/16,21:30,0.162,0.150,0.239,0.230,0.239,0.126,0.078,north-northwest,1.9,No
2020/07/16,21:40,0.164,0.148,0.240,0.231,0.237,0.126,0.078,north-northwest,1.5,No
2020/07/16,21:50,0.163,0.149,0.238,0.231,0.238,0.128,0.078,northwest,2.3,No
2020/07/16,22:00,0.164,0.149,0.241,0.230,0.239,0.127,0.078,northwest,1.0,No
2020/07/16,22:10,0.163,0.148,0.237,0.230,0.237,0.128,0.078,north-northwest,1.4,No
2020/07/16,22:20,0.162,0.149,0.241,0.230,0.238,0.127,0.078,north,1.3,No
2020/07/16,22:30,0.164,0.148,0.239,0.233,0.236,0.127,0.078,north-northwest,1.3,No
2020/07/16,22:40,0.163,0.149,0.240,0.229,0.238,0.128,0.079,north-northwest,0.8,No
2020/07/16,22:50,0.164,0.148,0.240,0.232,0.237,0.127,0.079,north,1.4,No
2020/07/16,23:00,0.163,0.149,0.239,0.230,0.238,0.127,0.078,north-northwest,1.9,No
2020/07/16,23:10,0.164,0.148,0.239,0.232,0.238,0.128,0.078,north-northwest,0.8,No
2020/07/16,23:20,0.163,0.150,0.239,0.231,0.237,0.128,0.079,northwest,1.6,No
2020/07/16,23:30,0.163,0.149,0.239,0.232,0.239,0.127,0.078,north-northwest,3.0,No
2020/07/16,23:40,0.164,0.149,0.238,0.231,0.237,0.127,0.078,north-northwest,2.5,No
2020/07/16,23:50,0.164,0.148,0.241,0.230,0.239,0.129,0.078,northwest,2.9,No
